Location: Theydon Bois
(51.6750°N, 0.1050°E)
Time: 13:05:36
(UTC+00:00)

Envisat - Pass Details

Date: 14 December 2019
Orbit: 764 x 766 km, 98.1° (Epoch: 18 January)

Event Time Altitude Azimuth Distance (km) Brightness Sun altitude
Rises 16:49:47 0° 138° (SE) 3,226 6.1 -8.7°
Reaches altitude 10° 16:52:12 10° 130° (SE) 2,303 5.3 -9.0°
Maximum altitude 16:56:51 37° 64° (ENE) 1,176 3.5 -9.7°
Drops below altitude 10° 17:01:30 10° 359° (N) 2,317 5.3 -10.3°
Sets 17:03:57 0° 351° (N) 3,248 6.1 -10.7°
